Location: Caltech
(34.1382°N, 118.1253°W)
Time: 23:08:25
(UTC-07:00)

KITSAT 1 - Visible Passes

Search period start: 22 March 2017 00:00
Search period end: 01 April 2017 00:00
Orbit: 1312 x 1319 km, 66.1° (Epoch: 21 March)

Date Brightness Start Highest point End Pass type
(mag) Time Alt. Az. Time Alt. Az. Time Alt. Az.
22 Mar 12.5 00:17:50 12° NNE 00:17:50 12° NNE 00:18:14 10° NNE visible
22 Mar 12.4 02:09:46 14° NNW 02:09:46 14° NNW 02:11:45 10° N visible
23 Mar 12.4 00:32:58 15° NNE 00:32:58 15° NNE 00:34:09 10° NNE visible
23 Mar 12.5 02:24:54 11° NNW 02:24:54 11° NNW 02:26:08 10° NNW visible
24 Mar 12.3 00:48:03 17° N 00:48:03 17° N 00:49:54 10° NNE visible
25 Mar 12.3 01:03:04 17° N 01:03:04 17° N 01:05:29 10° N visible
25 Mar 12.3 23:26:04 15° NNE 23:26:04 15° NNE 23:27:12 10° NNE visible
26 Mar 12.4 01:17:59 15° NNW 01:17:59 15° NNW 01:20:46 10° N visible
26 Mar 12.1 23:40:52 20° NNE 23:40:52 20° NNE 23:43:07 10° NNE visible
27 Mar 12.5 01:32:46 12° NW 01:32:46 12° NW 01:35:18 10° NNW visible
27 Mar 12.3 22:03:36 10° NE 22:03:36 10° NE 22:03:40 10° NE visible
27 Mar 11.9 23:55:29 24° N 23:55:29 24° N 23:58:53 10° NNE visible
28 Mar 12.7 05:47:43 10° N 05:51:19 13° NE 05:54:55 10° ENE visible
28 Mar 11.8 22:17:58 20° NE 22:17:58 20° NE 22:20:01 10° NNE visible
29 Mar 12.0 00:09:50 23° NNW 00:09:50 23° NNW 00:14:28 10° N visible
29 Mar 12.5 06:02:36 10° N 06:08:07 19° NE 06:13:37 10° E visible
29 Mar12.320:40:04NE20:40:04NE20:24:51SSEvisible
29 Mar 11.2 22:31:52 35° NNE 22:31:52 35° NNE 22:36:08 10° NNE visible
30 Mar 12.2 00:23:40 17° NW 00:24:41 18° NW 00:29:48 10° N visible
30 Mar 12.3 06:18:00 10° N 06:24:45 28° NE 06:31:25 10° ESE visible
30 Mar 11.4 20:42:42 10° SSE 20:52:52 21° ENE 20:55:51 10° NE visible
30 Mar 10.7 22:36:19 10° SW 22:44:30 54° NW 22:52:05 10° NNE visible
31 Mar 12.6 00:38:39 10° WNW 00:41:32 12° NW 00:44:26 10° NNW visible
31 Mar 10.4 20:57:33 10° S 21:05:03 44° ESE 21:12:35 10° NE visible
31 Mar 11.3 22:53:07 10° WSW 23:00:28 37° NW 23:07:52 10° NNE visible
